Location: *
(45.1333°S, 169.6333°W)
Time: 21:24:09
(UTC+00:00)

SL-16 R/B - Pass Details

Date: 26 May 2022
Orbit: 842 x 846 km, 71.0° (Epoch: 01 July)

Event Time Altitude Azimuth Distance (km) Brightness Sun altitude
Rises 05:23:06 0° 199° (SSW) 3,440 5.4 -16.1°
Reaches altitude 10° 05:26:08 10° 184° (S) 2,499 4.6 -16.6°
Enters shadow 05:30:26 23° 135° (SE) 1,754 3.4 -17.3°
